W4RJF Weather Reports


Display with metric or nautical units.
time (UTC)temp
F
wind
direction
speed
MPH
gust
MPH
rain 1hr
in
rain 24hr
in
rain mn
in
humidity
%
barometer
mb
20201204012021 44 202 0.0 0.0 0.00 0.00 0.00 56 1025.8
20201204011014 44 202 0.0 0.0 0.00 0.00 0.00 56 1025.8
20201204010022 45 202 0.0 0.0 0.00 0.00 0.00 56 1025.8
20201204005010 45 202 0.0 0.0 0.00 0.00 0.00 54 1025.6
20201204004014 46 202 0.0 0.0 0.00 0.00 0.00 50 1025.6
20201204003024 46 202 0.0 0.0 0.00 0.00 0.00 52 1025.7
20201204002018 46 202 0.0 1.0 0.00 0.00 0.00 49 1025.6
20201204001023 46 202 1.0 1.0 0.00 0.00 0.00 49 1025.6
20201204000012 46 202 1.0 1.0 0.00 0.00 0.00 48 1025.5
20201203235016 46 202 0.0 0.0 0.00 0.00 0.00 48 1025.7
20201203234010 47 202 0.0 1.0 0.00 0.00 0.00 54 1025.7
20201203233023 47 202 0.0 1.0 0.00 0.00 0.00 52 1025.6
20201203232019 47 202 0.0 0.0 0.00 0.00 0.00 51 1025.5
20201203231022 48 202 0.0 0.0 0.00 0.00 0.00 47 1025.5
20201203230020 48 202 0.0 0.0 0.00 0.00 0.00 44 1025.5
20201203225021 48 202 0.0 0.0 0.00 0.00 0.00 46 1025.6
20201203224023 48 202 0.0 0.0 0.00 0.00 0.00 48 1025.8
20201203223018 47 202 0.0 0.0 0.00 0.00 0.00 46 1025.8
20201203222019 48 202 0.0 0.0 0.00 0.00 0.00 49 1025.7
20201203221016 50 202 0.0 0.0 0.00 0.00 0.00 43 1025.6
20201203220019 51 202 0.0 0.0 0.00 0.00 0.00 40 1025.8
20201203215016 51 202 0.0 0.0 0.00 0.00 0.00 41 1025.7
20201203214020 52 202 0.0 1.0 0.00 0.00 0.00 38 1025.7
20201203213029 53 202 0.0 1.0 0.00 0.00 0.00 38 1025.6
20201203212024 54 202 1.0 1.0 0.00 0.00 0.00 36 1025.6
20201203211020 54 202 1.0 3.0 0.00 0.00 0.00 35 1025.7
20201203210020 55 205 1.0 3.0 0.00 0.00 0.00 32 1025.6
20201203205017 55 205 1.0 3.0 0.00 0.00 0.00 31 1025.6
20201203204017 55 205 0.0 8.0 0.00 0.00 0.00 29 1025.5
20201203203024 55 242 2.0 5.0 0.00 0.00 0.00 28 1025.5
20201203202019 55 274 3.0 8.0 0.00 0.00 0.00 30 1025.6
20201203201020 55 232 3.0 5.0 0.00 0.00 0.00 29 1025.6
20201203200021 55 233 3.0 5.0 0.00 0.00 0.00 29 1025.7
20201203195020 55 160 3.0 5.0 0.00 0.00 0.00 31 1025.6
20201203194019 55 188 4.0 5.0 0.00 0.00 0.00 29 1025.7
20201203193017 55 254 5.0 6.0 0.00 0.00 0.00 28 1025.7
20201203192022 56 248 2.0 5.0 0.00 0.00 0.00 28 1025.8
20201203191020 56 162 3.0 5.0 0.00 0.00 0.00 30 1025.7
20201203190026 56 261 2.0 5.0 0.00 0.00 0.00 30 1025.8
20201203185022 55 226 2.0 5.0 0.00 0.00 0.00 30 1026.0
20201203184009 55 280 1.0 3.0 0.00 0.00 0.00 30 1026.1
20201203183010 55 152 4.0 5.0 0.00 0.00 0.00 29 1026.1
20201203182010 55 227 5.0 6.0 0.00 0.00 0.00 28 1026.2
20201203181019 55 239 5.0 6.0 0.00 0.00 0.00 30 1026.5
20201203180011 55 153 3.0 5.0 0.00 0.00 0.00 31 1026.5
20201203175019 54 258 2.0 5.0 0.00 0.01 0.00 31 1026.7
20201203174018 54 190 2.0 5.0 0.00 0.01 0.00 29 1026.9
20201203173021 53 248 2.0 5.0 0.00 0.01 0.00 34 1027.0
20201203172028 53 251 2.0 6.0 0.00 0.01 0.00 33 1027.3
20201203171008 53 236 4.0 6.0 0.00 0.01 0.00 31 1027.5
20201203170022 53 229 3.0 6.0 0.00 0.01 0.00 38 1027.6
20201203165011 51 150 5.0 5.0 0.00 0.02 0.00 32 1027.8
20201203164026 51 197 2.0 5.0 0.00 0.02 0.00 35 1028.0
20201203163029 51 153 3.0 6.0 0.00 0.02 0.00 32 1028.2
20201203162011 51 250 2.0 5.0 0.00 0.03 0.00 37 1028.3
20201203161021 50 180 2.0 3.0 0.00 0.05 0.00 36 1028.3
20201203160024 49 196 3.0 5.0 0.00 0.07 0.00 40 1028.4
20201203155011 48 146 2.0 5.0 0.00 0.09 0.00 43 1028.6
20201203154020 47 155 2.0 5.0 0.00 0.10 0.00 41 1028.7
20201203153022 46 268 2.0 3.0 0.00 0.12 0.00 49 1028.8
20201203152017 44 268 0.0 3.0 0.00 0.12 0.00 50 1028.9
20201203151027 42 267 1.0 3.0 0.00 0.12 0.00 53 1029.0
20201203150023 42 267 0.0 1.0 0.00 0.12 0.00 55 1028.9
20201203145024 41 267 1.0 1.0 0.00 0.13 0.00 57 1028.9
20201203144018 40 267 1.0 5.0 0.00 0.13 0.00 61 1028.9
20201203143022 39 299 2.0 3.0 0.00 0.13 0.00 68 1029.0
20201203142024 37 299 2.0 3.0 0.00 0.13 0.00 70 1028.9
20201203141008 35 300 0.0 0.0 0.00 0.13 0.00 75 1028.9
20201203140023 34 300 0.0 1.0 0.00 0.13 0.00 81 1028.9
20201203135030 32 300 0.0 0.0 0.00 0.13 0.00 82 1028.8
20201203134012 32 300 0.0 0.0 0.00 0.13 0.00 83 1028.6
20201203133018 31 300 0.0 0.0 0.00 0.13 0.00 85 1028.5
20201203132015 29 300 0.0 0.0 0.00 0.13 0.00 85 1028.4
20201203131012 29 300 0.0 0.0 0.00 0.13 0.00 84 1028.4
20201203130010 29 300 0.0 0.0 0.00 0.13 0.00 84 1028.3
20201203125015 28 300 0.0 0.0 0.00 0.13 0.00 83 1028.5
20201203124010 28 300 0.0 0.0 0.00 0.13 0.00 83 1028.4
20201203123021 28 300 0.0 0.0 0.00 0.13 0.00 83 1028.3
20201203122009 28 300 0.0 0.0 0.00 0.13 0.00 83 1028.1
20201203121021 28 300 0.0 0.0 0.00 0.13 0.00 82 1027.9
20201203120024 28 300 0.0 0.0 0.00 0.13 0.00 82 1027.7
20201203115025 28 300 0.0 0.0 0.00 0.13 0.00 82 1027.6
20201203114019 29 300 0.0 0.0 0.00 0.13 0.00 82 1027.4
20201203113025 29 300 0.0 0.0 0.00 0.13 0.00 82 1027.5
20201203112011 29 300 0.0 0.0 0.00 0.13 0.00 81 1027.3
20201203111010 29 300 0.0 0.0 0.00 0.13 0.00 81 1027.2
20201203110020 29 300 0.0 0.0 0.00 0.13 0.00 82 1027.1
20201203105019 29 300 0.0 0.0 0.00 0.13 0.00 82 1026.9
20201203104021 29 300 0.0 0.0 0.00 0.13 0.00 81 1026.7
20201203103018 29 300 0.0 0.0 0.00 0.13 0.00 81 1026.8
20201203102014 29 300 0.0 0.0 0.00 0.13 0.00 81 1026.8
20201203101009 30 300 0.0 0.0 0.00 0.13 0.00 81 1026.7
20201203100019 30 300 0.0 0.0 0.00 0.13 0.00 80 1026.4
20201203095019 30 300 0.0 0.0 0.00 0.13 0.00 81 1026.3
20201203094020 30 300 0.0 0.0 0.00 0.13 0.00 81 1026.5
20201203093024 30 300 0.0 0.0 0.00 0.13 0.00 81 1026.4
20201203092018 30 300 0.0 0.0 0.00 0.13 0.00 81 1026.2
20201203091010 30 300 0.0 0.0 0.00 0.13 0.00 81 1026.2
20201203090020 30 300 0.0 0.0 0.00 0.13 0.00 80 1026.3
20201203085020 30 300 0.0 0.0 0.00 0.13 0.00 80 1026.1
20201203084025 31 300 0.0 0.0 0.00 0.13 0.00 79 1026.2
20201203083016 31 300 0.0 0.0 0.00 0.13 0.00 80 1026.3
20201203082012 31 300 0.0 0.0 0.00 0.13 0.00 80 1026.7
20201203081017 31 300 0.0 0.0 0.00 0.13 0.00 80 1026.7
20201203080019 31 300 0.0 0.0 0.00 0.13 0.00 79 1026.6
20201203075011 31 300 0.0 0.0 0.00 0.13 0.00 79 1026.8
20201203074020 31 300 0.0 0.0 0.00 0.13 0.00 79 1026.7
20201203073018 31 300 0.0 0.0 0.00 0.13 0.00 79 1026.6
20201203072019 32 300 0.0 0.0 0.00 0.13 0.00 78 1026.7
20201203071011 32 300 0.0 0.0 0.00 0.13 0.00 79 1026.6
20201203070019 32 300 0.0 0.0 0.00 0.13 0.00 78 1026.8
20201203065012 32 300 0.0 0.0 0.00 0.13 0.00 78 1026.7
20201203064015 32 300 0.0 0.0 0.00 0.13 0.00 77 1026.5
20201203063015 33 300 0.0 1.0 0.00 0.13 0.00 77 1026.4
20201203062021 33 300 0.0 0.0 0.00 0.13 0.00 78 1026.6
20201203061027 33 300 0.0 1.0 0.00 0.13 0.00 77 1026.6
20201203060020 33 300 0.0 0.0 0.00 0.13 0.00 77 1026.7
20201203055016 33 300 0.0 0.0 0.00 0.13 0.00 77 1026.6
20201203054028 33 300 0.0 1.0 0.00 0.13 0.00 78 1026.6
20201203053023 33 300 0.0 1.0 0.00 0.13 0.00 77 1026.8
20201203052023 33 300 1.0 1.0 0.00 0.13 0.00 78 1026.6
20201203051010 33 300 0.0 3.0 0.00 0.13 0.00 79 1026.5
20201203050020 33 300 0.0 0.0 0.00 0.13 0.00 78 1026.5
20201203045014 33 300 0.0 0.0 0.00 0.13 0.13 78 1026.4
20201203044023 33 300 0.0 1.0 0.00 0.13 0.13 77 1026.3
20201203043023 33 288 0.0 3.0 0.00 0.13 0.13 78 1026.2
20201203042017 33 288 3.0 3.0 0.00 0.13 0.13 77 1026.2
20201203041020 34 288 0.0 1.0 0.00 0.13 0.13 77 1026.3
20201203040030 34 288 0.0 1.0 0.00 0.13 0.13 77 1026.5
20201203035014 34 288 0.0 0.0 0.00 0.13 0.13 76 1026.5
20201203034024 34 288 0.0 1.0 0.00 0.13 0.13 76 1026.6
20201203033017 34 288 2.0 3.0 0.00 0.13 0.13 76 1026.7
20201203032017 35 288 0.0 1.0 0.00 0.13 0.13 76 1026.4
20201203031016 35 288 0.0 1.0 0.00 0.13 0.13 75 1026.3
20201203030019 35 288 0.0 1.0 0.00 0.13 0.13 75 1026.4
20201203025015 35 288 1.0 1.0 0.00 0.13 0.13 73 1026.4
20201203024018 35 288 0.0 1.0 0.00 0.13 0.13 74 1026.5
20201203023022 36 288 1.0 3.0 0.00 0.13 0.13 74 1026.6
20201203022020 36 288 0.0 0.0 0.00 0.13 0.13 72 1026.5
20201203021014 36 288 0.0 0.0 0.00 0.13 0.13 72 1026.5
20201203020017 37 288 0.0 0.0 0.00 0.13 0.13 73 1026.5
20201203015017 37 288 0.0 1.0 0.00 0.13 0.13 71 1026.4
20201203014022 38 288 0.0 0.0 0.00 0.13 0.13 70 1026.3
20201203013039 38 288 0.0 0.0 0.00 0.13 0.13 69 1026.3